Home   Weather   San Andrés   Past weeks

Flag for Colombia Past Weather in San Andrés, Colombia — Yesterday and Last 2 Weeks

Now
84 °F

Scattered clouds.


Feels Like: 90 °F
Forecast: 77 / 82 °F
Wind: 7 mph from East

Location: San Andres Isla / Sesquicentenario

Current Time: Jan 21, 2017 at 2:45:15 pm

Latest Report: Jan 21, 2017 at 2:00 pm


Visibility: N/A

Pressure: 29.94 "Hg

Humidity: 66%

Dew Point: 72 °F

Location of San AndrésLocation

Past Weather in San Andrés — Graph

°F

San Andrés Temperature Yesterday

Maximum temperature yesterday: 84 °F (at 12:00 pm)
Minimum temperature yesterday: 77 °F (at 7:00 am)
Average temperature yesterday: 81 °F

High & Low Weather Summary for the Past Weeks

 TemperatureHumidityPressure
High84 °F (Jan 6, 1:00 pm)94% (Jan 8, 2:00 am)30.07 "Hg (Jan 8, 2:00 am)
Low73 °F (Jan 14, 4:20 pm)62% (Jan 13, 3:00 pm)29.83 "Hg (Jan 6, 4:00 pm)
Average80 °F79%29.95 "Hg
* Reported Jan 6 1:00 pm — Jan 21 1:00 pm, San Andrés, Weather by CustomWeather, © 2017

Note: Actual official high and low records may vary slightly from our data, if they occured in-between our weather recording intervals... More about our weather records

Advertising

San Andrés Weather History for the Previous 24 Hours

Scroll right to see more
 ConditionsComfort  
Time TempWeatherWind HumidityBarometerVisibility
1:00 pm
Sat, Jan 21
84 °FScattered clouds.9 mph66%29.98 "HgN/A
12:00 pm84 °FPassing clouds.8 mph66%30.00 "HgN/A
11:00 am84 °FPassing clouds.7 mph70%30.01 "HgN/A
10:00 am82 °FPassing clouds.7 mph70%30.02 "HgN/A
9:00 am82 °FPassing clouds.6 mph70%30.00 "HgN/A
8:00 am79 °FPassing clouds.7 mph79%29.98 "HgN/A
7:00 am77 °FPassing clouds.5 mph89%29.96 "HgN/A
6:00 am77 °FPassing clouds.5 mph83%29.95 "HgN/A
5:00 am77 °FPassing clouds.2 mph83%29.93 "HgN/A
4:00 am77 °FPassing clouds.2 mph83%29.93 "HgN/A
3:00 am77 °FPassing clouds.5 mph83%29.94 "HgN/A
2:00 am79 °FPassing clouds.5 mph79%29.95 "HgN/A
1:00 am79 °FPassing clouds.6 mph79%29.97 "HgN/A
12:00 am79 °FPassing clouds.5 mph79%29.98 "HgN/A
11:00 pm
Fri, Jan 20
79 °FPassing clouds.6 mph79%29.98 "HgN/A
10:00 pm79 °FPassing clouds.5 mph79%29.98 "HgN/A
9:00 pm79 °FPassing clouds.6 mph79%29.96 "HgN/A
8:00 pm81 °FPassing clouds.6 mph74%29.94 "HgN/A
7:00 pm81 °FPassing clouds.6 mph74%29.92 "HgN/A
6:00 pm81 °FPassing clouds.7 mph74%29.91 "HgN/A
5:00 pm82 °FPassing clouds.7 mph70%29.89 "HgN/A
4:00 pm84 °FPassing clouds.8 mph70%29.89 "HgN/A
3:00 pm84 °FPassing clouds.10 mph66%29.89 "HgN/A
2:00 pm84 °FPassing clouds.7 mph66%29.91 "HgN/A
Weather by CustomWeather, © 2017

See weather overviewHow to use our weather pages